This is the latest recevied weather packets stored in our database for station/object EW1958. If no packets are shown the sender has not sent any weather packets the latest 1 day(s).
| Time | Temp. | Humidity | Pressure | Rain* | Wind** | Luminosity | Snow |
|---|---|---|---|---|---|---|---|
| 1778029121 | 16.67° C | 75% | 1017.7 hPa | 0 mm | 0 m/s | - | - |
| 1778028694 | 16.67° C | 75% | 1017.7 hPa | 0 mm | 0 m/s | - | - |
| 1778028522 | 16.67° C | 75% | 1017.7 hPa | 0 mm | 0 m/s | - | - |
| 1778028094 | 16.67° C | 75% | 1017.7 hPa | 0 mm | 0 m/s | - | - |
| 1778027794 | 16.67° C | 76% | 1017.6 hPa | 0 mm | 0 m/s | - | - |
| 1778027493 | 16.67° C | 74% | 1017.8 hPa | 0 mm | 0 m/s | - | - |
| 1778027324 | 16.67° C | 74% | 1017.7 hPa | 0 mm | 0 m/s | - | - |
| 1778026892 | 16.67° C | 74% | 1017.9 hPa | 0 mm | 0 m/s | - | - |
| 1778026593 | 16.67° C | 74% | 1017.8 hPa | 0 mm | 0 m/s | - | - |
| 1778026290 | 16.67° C | 73% | 1017.9 hPa | 0 mm | 0 m/s | - | - |
| 1778026003 | 16.67° C | 76% | 1018 hPa | 0 mm | 0 m/s | - | - |
| 1778025994 | 16.67° C | 76% | 1018 hPa | 0 mm | 0 m/s | - | - |
| 1778025385 | 16.67° C | 75% | 1018 hPa | 0 mm | 0 m/s | - | - |
| 1778025086 | 16.67° C | 74% | 1018.2 hPa | 0 mm | 0 m/s | - | - |
| 1778024782 | 16.67° C | 76% | 1018.3 hPa | 0 mm | 0 m/s | - | - |
| 1778024483 | 16.67° C | 75% | 1018.4 hPa | 0 mm | 0 m/s | - | - |
| 1778024183 | 16.67° C | 75% | 1018.3 hPa | 0 mm | 0 m/s | - | - |
| 1778023883 | 16.67° C | 75% | 1018.4 hPa | 0 mm | 0 m/s | - | - |
| 1778023582 | 16.67° C | 76% | 1018.4 hPa | 0 mm | 0 m/s | - | - |
| 1778023435 | 16.67° C | 76% | 1018.4 hPa | 0 mm | 0 m/s | - | - |
| 1778022981 | 16.67° C | 75% | 1018.4 hPa | 0 mm | 0 m/s | - | - |
| 1778022682 | 16.11° C | 74% | 1018.5 hPa | 0 mm | 0 m/s | - | - |
| 1778022511 | 16.11° C | 75% | 1018.5 hPa | 0 mm | 0 m/s | - | - |
| 1778022080 | 16.11° C | 74% | 1018.5 hPa | 0 mm | 0 m/s | - | - |
| 1778021785 | 16.11° C | 76% | 1018.6 hPa | 0 mm | 0 m/s | - | - |
* Rain latest hour (hover to see other rain measurements)
** Current wind speed in m/s (hover to see current wind gust speed)